User: anonymous   Login
Location: Newark
(25.3833°N, 97.4000°E)
Time: 22:19:47
(UTC+00:00)
Language:

AO-73 - Orbit

View from above orbital plane
View from above orbital plane
View from above satellite
View from above satellite

Ground track
Ground track

The orbit data is extracted from the following two-line orbital elements,

1 39444U 13066AE  20052.49706103 +.00000261 +00000-0 +38397-4 0  9992
2 39444 097.5587 059.2022 0056579 294.8430 064.6907 14.82066483336049
Epoch (UTC): 21 February 2020 11:55:46
Eccentricity: 0.0056579
inclination: 97.5587°
perigee height: 583 km
apogee height: 662 km
right ascension of ascending node: 59.2022°
argument of perigee: 294.8430°
revolutions per day: 14.82066483
mean anomaly at epoch: 64.6907°
orbit number at epoch: 33604

The dashed part of the orbit path shows where the satellite is in the earth's shadow,  

DLR